Regional Weather Roundup
Issued by NWS Albany, NY

Home | Current Version | Previous Version | Text Only | Print | Product List | Glossary On
Versions: 1 2 3 4 5 6 7 8 9 10 11 12 13 14 15 16 17 18 19 20 21 22 23 24 25 26 27 28 29 30 31 32 33 34 35 36 37 38 39 40 41 42 43 44 45 46 47 48 49 50
000
ASUS41 KALY 211410
RWRALY

NEW YORK STATE HOURLY WEATHER ROUNDUP
NATIONAL WEATHER SERVICE ALBANY NY
900 AM EST SUN DEC 21 2014

NOTE: "FAIR" INDICATES FEW OR NO CLOUDS BELOW 12,000 FEET WITH NO
SIGNIFICANT WEATHER AND/OR NO OBSTRUCTIONS TO VISIBILITY.

NYZ032-033-038>043-046>054-057>066-NYZ062>081-211500-
EAST


CITY           SKY/WX    TMP DP  RH WIND       PRES   REMARKS
ALBANY         LGT SNOW  27  21  78 N3        30.35R FOG
GLENS FALLS    CLOUDY    24  20  84 NE6       30.35R WCI  17
POUGHKEEPSIE   CLOUDY    30  25  81 CALM      30.32R
NEWBURGH       CLOUDY    28  27  93 VRB5      30.30S WCI  23
MONTGOMERY     CLOUDY    29  25  85 N7        30.29S WCI  22
WHITE PLAINS   CLOUDY    30  25  81 N7        30.27S WCI  23
ISLIP          CLOUDY    34  27  75 NW6       30.28S WCI  29
NEW YORK CITY  CLOUDY    33  26  75 N6        30.31S WCI  28
CENTRAL PARK   CLOUDY    32  24  72 VRB3      30.32S
$$

NYZ005>009-017-018-044>046-055-056-211500-
CENTRAL


CITY           SKY/WX    TMP DP  RH WIND       PRES   REMARKS
FULTON         CLOUDY    28  22  78 SE3       30.32R
SYRACUSE       CLOUDY    28  25  88 CALM      30.32R
ROME           CLOUDY    26  21  81 CALM      30.35R
ELMIRA         CLOUDY    28  23  81 SW3       30.30R
BINGHAMTON     CLOUDY    24  20  84 W3        30.25R
MONTICELLO     CLOUDY    27  25  93 W5        30.26R WCI  21
$$

NYZ026>034-041>043-211500-
NORTH


CITY           SKY/WX    TMP DP  RH WIND       PRES   REMARKS
WATERTOWN      CLOUDY    27  20  75 CALM      30.33R
FORT DRUM      NOT AVBL
MASSENA        CLOUDY    16  13  88 E6        30.38R FOG     WCI   7
SARANAC LAKE   CLOUDY    18  15  88 CALM      30.22S
PLATTSBURGH    CLOUDY    18  17  96 CALM      30.37R FOG
$$

NYZ001>004-010>016-019>021-211500-
WEST


CITY           SKY/WX    TMP DP  RH WIND       PRES   REMARKS
NIAGARA FALLS  MOCLDY    28  24  85 CALM      30.31S
BUFFALO        PTSUNNY   29  23  78 SW3       30.31R
DUNKIRK        CLOUDY    31  24  75 W5        30.32S WCI  26
JAMESTOWN      CLOUDY    25  21  86 SW3       30.26R
WELLSVILLE     CLOUDY    25  22  88 NW7       30.25R WCI  17
ROCHESTER      PTSUNNY   28  24  85 CALM      30.32R
PENN YAN       CLOUDY    29  22  75 SW3       30.30R
$$

             KEY
       WCI = WIND CHILL INDEX
       VSB = VISIBILITY
       HX  = HEAT INDEX
$$



USA.gov is the U.S. government's official web portal to all federal, state and local government web resources and services.